[Iaude] MPEC V08: 2016 UX80 [a=0.94,e=0.25,i=25.6,H=24.5]

mpec at si.edu mpec at si.edu
Tue Nov 1 20:35:40 EDT 2016


M.P.E.C. 2016-V08                                Issued 2016 Nov. 2, 00:31 UT
 
     The Minor Planet Electronic Circulars contain information on unusual
         minor planets and routine data on comets.  They are published
    on behalf of Division F of the International Astronomical Union by the
          Minor Planet Center, Smithsonian Astrophysical Observatory,
                          Cambridge, MA 02138, U.S.A.

             Prepared using the Tamkin Foundation Computer Network

                              MPC at CFA.HARVARD.EDU
            URL http://www.minorplanetcenter.net/    ISSN 1523-6714


                                   2016 UX80
 
Observations:
     K16U80X* C2016 10 31.29839 02 19 55.57 +27 17 26.6          19.4 VqEV008G96
     K16U80X  C2016 10 31.30315 02 19 49.39 +27 18 26.1          19.1 VqEV008G96
     K16U80X  C2016 10 31.31274 02 19 37.24 +27 20 25.1          19.3 VqEV008G96
     K16U80X  C2016 10 31.36030 02 18 36.53 +27 30 11.9          19.6 VqEV008G96
     K16U80X  C2016 10 31.36048 02 18 36.35 +27 30 14.5          19.7 VqEV008G96
     K16U80X  C2016 10 31.36065 02 18 36.13 +27 30 16.2          19.5 VqEV008G96
     K16U80X  C2016 10 31.36087 02 18 35.88 +27 30 19.4          19.4 VqEV008G96
     K16U80X  C2016 10 31.41981 02 17 21.57 +27 42 13.6          20.3 VqEV008G96
     K16U80X  C2016 10 31.41999 02 17 21.39 +27 42 15.0          20.4 VqEV008G96
     K16U80X  C2016 10 31.42017 02 17 21.05 +27 42 16.9          20.2 VqEV008G96
     K16U80X  C2016 10 31.42036 02 17 20.80 +27 42 19.5          20.4 VqEV008G96
     K16U80X  C2016 10 31.46702 02 16 22.74 +27 51 35.4          20.0 VqEV008G96
     K16U80X  C2016 10 31.46722 02 16 22.50 +27 51 37.5          20.3 VqEV008G96
     K16U80X  C2016 10 31.46742 02 16 22.26 +27 51 38.6          19.9 VqEV008G96
     K16U80X  C2016 10 31.46763 02 16 22.02 +27 51 42.9          19.5 VqEV008G96
     K16U80X KC2016 10 31.81706 02 09 35.49 +28 59 40.9          19.4 RoEV008K51
     K16U80X KC2016 10 31.81854 02 09 33.70 +28 59 57.9          19.2 RoEV008K51
     K16U80X KC2016 10 31.81999 02 09 31.94 +29 00 14.6          19.2 RoEV008K51
     K16U80X tC2016 10 31.82263 02 09 28.23 +29 00 40.6                qEV008246
     K16U80X tC2016 10 31.82310 02 09 27.64 +29 00 47.0                qEV008246
     K16U80X tC2016 10 31.82498 02 09 25.43 +29 01 06.0                qEV008246
     K16U80X tC2016 10 31.82574 02 09 24.51 +29 01 16.4                qEV008246
     K16U80X KC2016 10 31.97547 02 06 24.72 +29 29 22.2          19.1 VUEV008958
     K16U80X KC2016 10 31.98258 02 06 16.18 +29 30 40.8          19.7 VUEV008958
     K16U80X KC2016 10 31.98974 02 06 07.58 +29 31 59.3          19.5 VUEV008958
     K16U80X KC2016 10 31.99300 02 06 03.57 +29 32 32.3          19.2 VqEV008I93
     K16U80X KC2016 10 31.99735 02 05 58.34 +29 33 19.7          19.3 VqEV008I93
     K16U80X KC2016 11 01.00128 02 05 53.61 +29 34 02.3          19.3 VqEV008I93
     K16U80X KC2016 11 01.23327702 01 26.10 +30 15 24.0          20.0 VuEV008H21
     K16U80X KC2016 11 01.24036402 01 17.70 +30 16 37.5          20.1 VuEV008H21
     K16U80X KC2016 11 01.24919902 01 07.23 +30 18 08.5          20.2 VuEV008H21
     K16U80X  C2016 11 01.36110 01 58 57.89 +30 37 24.0          19.7 VqEV008I52
     K16U80X  C2016 11 01.36151 01 58 57.40 +30 37 27.9          19.5 VqEV008I52
     K16U80X  C2016 11 01.36193 01 58 56.92 +30 37 31.8          19.5 VqEV008I52
     K16U80X  C2016 11 01.36234 01 58 56.42 +30 37 36.1          19.5 VqEV008I52
     K16U80X KC2016 11 01.82853 01 50 28.02 +31 51 49.6          19.6 VqEV008Z99
     K16U80X KC2016 11 01.83266 01 50 23.53 +31 52 28.1          19.9 VqEV008Z99
     K16U80X KC2016 11 01.83680 01 50 19.01 +31 53 06.7          20.1 VqEV008Z99
 
Observer details:
246 Klet Observatory-KLENOT.  Observers M. Tichy, J. Ticha.  Measurer M. Tichy.
    1.06-m KLENOT Telescope + CCD.
958 Observatoire de Dax.  Observers P. Dupouy, J. B. de Vanssay.  Measurer
    P. Dupouy.  0.43-m f/2.7 reflector + CCD.
G96 Mt. Lemmon Survey.  Observer A. D. Grauer.  Measurers E. J. Christensen,
    D. C. Fuls, A. R. Gibbs, A. D. Grauer, J. A. Johnson, R. A. Kowalski,
    S. M. Larson, G. J. Leonard, R. G. Matheny, R. L. Seaman, F. C. Shelly.
    1.5-m reflector + 10K CCD.
H21 Astronomical Research Observatory, Westfield.  Observer R. Holmes.
    Measurers S. Foglia, L. Buzzi, T. Linder, R. Holmes.  0.76-m f/3.0
    astrograph + CCD.
I52 Steward Observatory, Mt. Lemmon Station.  Observer G. J. Leonard.
    Measurers E. J. Christensen, D. C. Fuls, A. R. Gibbs, A. D. Grauer,
    J. A. Johnson, R. A. Kowalski, S. M. Larson, G. J. Leonard, R. G. Matheny,
    R. L. Seaman, F. C. Shelly.  1.0-m reflector + CCD.
I93 St Pardon de Conques.  Observer F. Losse.  0.40-m f/3.7 reflector + CCD.
K51 Osservatorio del Celado, Castello Tesino.  Observers G. Favero, R. Furgoni.
    Measurer R. Furgoni.  0.80-m f/4 reflector + CCD.
Z99 Clixby Observatory, Cleethorpes.  Observer A. Mickleburgh.  0.36-m f/8
    Schmidt-Cassegrain + CCD.
 
Orbital elements:
2016 UX80                                                Earth MOID = 0.0507 AU
Epoch 2016 July 31.0 TT = JDT 2457600.5                 MPC
M   8.94362              (2000.0)            P               Q
n   1.07809407     Peri.  229.71132     -0.10885509     +0.96007476
a   0.9419582      Node    36.60829     -0.72931127     +0.09901857
e   0.2464127      Incl.   25.60268     -0.67546698     -0.26163290
P   0.91           H   24.5           G   0.15           U   7
Residuals in seconds of arc
161031 G96  0.4+  0.2+    161031 G96  0.1-  1.5-    161031 I93  0.2+  0.1-
161031 G96  0.8-  0.2+    161031 G96  0.2+  0.4+    161101 I93  0.4+  0.2-
161031 G96  0.6+  0.3-    161031 K51  0.4+  0.0     161101 H21 (2.0-  0.2-)
161031 G96  1.0-  0.2-    161031 K51  0.5+  0.0     161101 H21 (1.9-  0.0 )
161031 G96  0.3-  0.2+    161031 K51  0.4+  0.0     161101 H21 (1.8-  0.2-)
161031 G96  0.4-  0.2-    161031 246  0.5-  0.4-    161101 I52  0.0   0.0
161031 G96  0.0   0.3+    161031 246  0.8-  0.6+    161101 I52  0.1-  0.2-
161031 G96  0.6+  0.6+    161031 246 (0.1+  1.9-)   161101 I52  0.1+  0.5-
161031 G96  1.2+  0.2-    161031 246  0.1+  0.2-    161101 I52  0.2-  0.2-
161031 G96  0.3-  0.4-    161031 958 (1.8-  0.5-)   161101 Z99  1.0-  0.1+
161031 G96  0.4-  0.1-    161031 958  1.0-  0.3+    161101 Z99  0.1+  0.0
161031 G96  0.3-  0.1+    161031 958  0.3-  0.6+    161101 Z99  0.9+  0.1-
161031 G96  0.2-  0.2-    161031 I93  0.1-  0.1-

Ephemeris:
2016 UX80                a,e,i = 0.94, 0.25, 26                  q = 0.7098
Date    TT    R. A. (2000) Decl.     Delta      r     Elong.  Phase     V
2016 10 03    08 11 14.2 -40 44 40   0.1963  0.9503    69.6    99.2    24.4
...
2016 10 18    06 35 47.3 -29 20 02   0.09206 1.0120    97.3    77.5    22.1
...
2016 10 26    04 19 26.9 +00 53 49   0.05825 1.0418   144.1    34.0    19.8
...
2016 11 01    02 05 57.1 +29 34 11   0.07250 1.0625   164.2    14.7    19.8
2016 11 02    01 47 20.4 +32 18 22   0.07786 1.0657   160.0    18.6    20.0
2016 11 03    01 30 22.2 +34 31 05   0.08373 1.0690   155.9    22.3    20.3
...
2016 11 09    00 19 31.9 +41 07 57   0.1255  1.0875   138.4    37.2    21.7
...
2016 11 17    23 36 53.9 +43 22 58   0.1885  1.1095   125.8    46.3    22.9
...
2016 12 02    23 16 29.1 +44 21 56   0.3111  1.1424   112.6    52.8    24.2

A. U. Tomatic                (C) Copyright 2016 MPC           M.P.E.C. 2016-V08




More information about the Iaude mailing list